User: anonymous   Login
Location: Carrer del Canonge
(41.4901°N, 2.2931°E)
Time: 14:31:22
(UTC+00:00)
Language:

Resurs 1-3 - Orbit

View from above orbital plane
View from above orbital plane
View from above satellite
View from above satellite

Ground track
Ground track

The orbit data is extracted from the following two-line orbital elements,

1 23342U 94074A   20333.57607728 +.00000209 +00000-0 +34891-4 0  9991
2 23342 097.9086 020.0666 0001202 132.4396 227.6917 14.79357477403856
Epoch (UTC): 28 November 2020 13:49:33
Eccentricity: 0.0001202
inclination: 97.9086°
perigee height: 630 km
apogee height: 632 km
right ascension of ascending node: 20.0666°
argument of perigee: 132.4396°
revolutions per day: 14.79357477
mean anomaly at epoch: 227.6917°
orbit number at epoch: 40385

The dashed part of the orbit path shows where the satellite is in the earth's shadow,  

DLR